START_TIME,STEP,MOV.,M15,t_acc.,M20,t_acc.
1979-07-27 06:00:43.180 ,0,1,0.,24.0,0.,24.0
1979-07-27 06:01:07.180 ,4,1,0.,24.0,0.,24.0
1979-07-27 06:01:31.180 ,7,1,0.,24.0,0.,24.0
1979-07-27 06:01:55.180 ,3,1,0.,24.0,0.,24.0
1979-07-27 06:02:19.180 ,0,1,0.,24.0,0.,24.0
1979-07-27 06:02:43.180 ,4,1,0.,24.0,0.,24.0
1979-07-27 06:03:07.180 ,7,1,0.,24.0,0.,24.0
1979-07-27 06:03:31.180 ,3,1,0.,24.0,0.,24.0
1979-07-27 06:03:55.180 ,0,1,0.,24.0,0.,24.0
1979-07-27 06:04:19.180 ,4,1,0.,24.0,0.,24.0
1979-07-27 06:04:43.180 ,7,1,0.,24.0,0.,24.0
1979-07-27 06:05:07.180 ,3,1,0.,24.0,0.,24.0
1979-07-27 06:05:31.180 ,0,1,0.,24.0,0.,24.0
1979-07-27 06:05:55.180 ,0,0,0.,24.0,0.,24.0
1979-07-27 06:06:19.180 ,0,0,0.,24.0,0.,24.0
1979-07-27 06:06:43.180 ,5,1,0.,24.0,0.,24.0
1979-07-27 06:07:07.180 ,5,0,0.,24.0,0.,24.0
1979-07-27 06:07:31.180 ,4,1,0.,24.0,0.,24.0
1979-07-27 06:07:55.180 ,4,0,0.,24.0,0.,24.0
1979-07-27 06:08:19.180 ,3,1,0.,24.0,0.,24.0
1979-07-27 06:08:43.180 ,3,0,0.,24.0,0.,24.0
1979-07-27 06:09:07.180 ,2,1,0.,24.0,0.,24.0
1979-07-27 06:09:31.180 ,2,0,0.,24.0,0.,24.0
1979-07-27 06:09:55.180 ,1,1,0.,24.0,0.,24.0
1979-07-27 06:10:19.180 ,1,0,0.,24.0,0.,24.0
1979-07-27 06:10:43.180 ,0,1,0.,24.0,0.,24.0
1979-07-27 06:11:07.180 ,0,0,0.,24.0,0.,24.0
1979-07-27 06:11:31.180 ,0,1,0.,24.0,0.,24.0
1979-07-27 06:11:55.180 ,0,0,0.,24.0,0.,24.0
1979-07-27 06:12:19.180 ,1,1,0.,24.0,0.,24.0
1979-07-27 06:12:43.180 ,1,0,0.,24.0,0.,24.0
1979-07-27 06:13:07.180 ,2,1,0.,24.0,0.,24.0
1979-07-27 06:13:31.180 ,2,0,0.,24.0,0.,24.0
1979-07-27 06:13:55.180 ,3,1,0.,24.0,0.,24.0
1979-07-27 06:14:19.180 ,3,0,0.,24.0,0.,24.0
1979-07-27 06:14:43.180 ,4,1,0.,24.0,0.,24.0
1979-07-27 06:15:07.180 ,4,0,0.,24.0,0.,24.0
1979-07-27 06:15:31.180 ,5,1,0.,24.0,0.,24.0
1979-07-27 06:15:55.180 ,5,0,0.,24.0,0.,24.0
1979-07-27 06:16:19.180 ,6,1,0.,24.0,0.,24.0
1979-07-27 06:16:43.180 ,6,0,0.,24.0,0.,24.0
1979-07-27 06:17:07.180 ,7,1,0.,24.0,0.,24.0
1979-07-27 06:17:31.180 ,7,0,0.,24.0,0.,24.0
1979-07-27 06:17:55.180 ,7,1,0.,24.0,0.,24.0
1979-07-27 06:18:19.180 ,7,0,0.,24.0,0.,24.0
1979-07-27 06:18:43.180 ,6,1,0.,24.0,0.,24.0
1979-07-27 06:19:07.180 ,6,0,0.,24.0,0.,24.0
1979-07-27 06:19:31.180 ,5,1,0.,24.0,0.,24.0
1979-07-27 06:19:55.180 ,5,0,0.,24.0,0.,24.0
1979-07-27 06:20:19.180 ,4,1,0.,24.0,0.,24.0
1979-07-27 06:20:43.180 ,4,0,0.,24.0,0.,24.0
1979-07-27 06:21:07.180 ,3,1,0.,24.0,0.,24.0
1979-07-27 06:21:31.180 ,3,0,0.,24.0,0.,24.0
1979-07-27 06:21:55.180 ,2,1,0.,24.0,0.,24.0
1979-07-27 06:22:19.180 ,2,0,0.,24.0,0.,24.0
1979-07-27 06:22:43.180 ,1,1,0.,24.0,0.,24.0
1979-07-27 06:23:07.180 ,1,0,0.,24.0,0.,24.0
1979-07-27 06:23:31.180 ,0,1,0.,24.0,0.,24.0
1979-07-27 06:23:55.180 ,0,0,0.,24.0,0.,24.0
1979-07-27 06:24:19.180 ,0,1,0.,24.0,0.,24.0
1979-07-27 06:24:43.180 ,0,0,0.,24.0,0.,24.0
1979-07-27 06:25:07.180 ,1,1,0.,24.0,0.,24.0
1979-07-27 06:25:31.180 ,1,0,0.,24.0,0.,24.0
1979-07-27 06:25:55.180 ,2,1,0.,24.0,0.,24.0
1979-07-27 06:26:19.180 ,2,0,0.,24.0,0.,24.0
1979-07-27 06:26:43.180 ,3,1,0.,24.0,0.,24.0
1979-07-27 06:27:07.180 ,3,0,0.,24.0,0.,24.0
1979-07-27 06:27:31.180 ,4,1,0.,24.0,0.,24.0
1979-07-27 06:27:55.180 ,4,0,0.,24.0,0.,24.0
1979-07-27 06:28:19.180 ,5,1,0.,24.0,0.,24.0
1979-07-27 06:28:43.180 ,5,0,0.,24.0,0.,24.0
1979-07-27 06:29:07.180 ,6,1,0.,24.0,0.,24.0
1979-07-27 06:29:31.180 ,6,0,0.,24.0,0.,24.0
1979-07-27 06:29:55.180 ,7,1,0.,24.0,0.,24.0
1979-07-27 06:30:19.180 ,7,0,0.,24.0,0.,24.0
1979-07-27 06:30:43.180 ,7,1,0.,24.0,0.,24.0
1979-07-27 06:31:07.180 ,7,0,0.,24.0,0.,24.0
1979-07-27 06:31:31.180 ,6,1,0.,24.0,0.,24.0
1979-07-27 06:31:55.180 ,6,0,0.,24.0,0.,24.0
1979-07-27 06:32:19.180 ,5,1,0.,24.0,0.,24.0
1979-07-27 06:32:43.180 ,5,0,0.,24.0,0.,24.0
1979-07-27 06:33:07.180 ,4,1,0.,24.0,0.,24.0
1979-07-27 06:33:31.180 ,4,0,0.,24.0,0.,24.0
1979-07-27 06:33:55.180 ,0,0,,0,,0
1979-07-27 06:34:19.180 ,0,0,,0,,0
1979-07-27 06:34:19.180 ,3,0,0.,24.0,0.,24.0
1979-07-27 06:34:43.180 ,2,1,0.,24.0,0.,24.0
1979-07-27 06:35:07.180 ,2,0,0.,24.0,0.,24.0
1979-07-27 06:35:31.180 ,1,1,0.,24.0,0.,24.0
1979-07-27 06:35:55.180 ,1,0,0.,24.0,0.,24.0
1979-07-27 06:36:19.180 ,0,1,0.,24.0,0.,24.0
1979-07-27 06:36:43.180 ,0,0,0.,24.0,0.,24.0
1979-07-27 06:37:07.180 ,0,1,0.,24.0,0.,24.0
1979-07-27 06:37:31.180 ,0,0,0.,24.0,0.,24.0
1979-07-27 06:37:55.170 ,1,1,0.,24.0,0.,24.0
1979-07-27 06:38:19.170 ,1,0,0.,24.0,0.,24.0
1979-07-27 06:38:43.170 ,2,1,0.,24.0,0.,24.0
1979-07-27 06:39:07.170 ,2,0,0.,24.0,0.,24.0
1979-07-27 06:39:31.170 ,3,1,0.,24.0,0.,24.0
1979-07-27 06:39:55.170 ,3,0,0.,24.0,0.,24.0
1979-07-27 06:40:19.170 ,4,1,0.,24.0,0.,24.0
1979-07-27 06:40:43.170 ,4,0,0.,24.0,0.,24.0
1979-07-27 06:41:07.170 ,5,1,0.,24.0,0.,24.0
1979-07-27 06:41:31.170 ,5,0,0.,24.0,0.,24.0
1979-07-27 06:41:55.170 ,6,1,0.,24.0,0.,24.0
1979-07-27 06:42:19.170 ,6,0,0.,24.0,0.,24.0
1979-07-27 06:42:43.170 ,7,0,0.,24.0,0.,24.0
1979-07-27 06:43:07.170 ,7,0,0.,24.0,0.,24.0
1979-07-27 06:43:31.170 ,3,1,0.,24.0,0.,24.0
1979-07-27 06:43:55.170 ,0,1,0.,24.0,0.,24.0
1979-07-27 06:44:19.170 ,4,1,0.,24.0,0.,24.0
1979-07-27 06:44:43.170 ,7,1,0.,24.0,0.,24.0
1979-07-27 06:45:07.170 ,3,1,0.,24.0,0.,24.0
1979-07-27 06:45:31.170 ,0,1,0.,24.0,0.,24.0
1979-07-27 06:45:55.170 ,4,1,0.,24.0,0.,24.0
1979-07-27 06:46:19.170 ,7,1,0.,24.0,0.,24.0
1979-07-27 06:46:43.170 ,3,1,0.,24.0,0.,24.0
1979-07-27 06:47:07.170 ,0,1,0.,24.0,0.,24.0
1979-07-27 06:47:31.170 ,4,1,0.,24.0,0.,24.0
1979-07-27 06:47:55.170 ,0,0,,0,,0
1979-07-27 06:48:19.170 ,0,0,0.,24.0,0.,24.0
1979-07-27 06:48:43.170 ,0,1,0.,24.0,0.,24.0
1979-07-27 06:49:07.170 ,4,1,0.,24.0,0.,24.0
1979-07-27 06:49:31.170 ,7,1,0.,24.0,0.,24.0
1979-07-27 06:49:55.170 ,3,1,0.,24.0,0.,24.0
1979-07-27 06:50:19.170 ,0,1,0.,24.0,0.,24.0
1979-07-27 06:50:43.170 ,4,1,0.,24.0,0.,24.0
1979-07-27 06:51:07.170 ,7,1,0.,24.0,0.,24.0
1979-07-27 06:51:31.170 ,3,1,0.,24.0,0.,24.0
1979-07-27 06:51:55.170 ,0,1,0.,24.0,0.,24.0
1979-07-27 06:52:19.170 ,4,1,0.,24.0,0.,24.0
1979-07-27 06:52:43.170 ,7,1,0.,24.0,0.,24.0
1979-07-27 06:53:07.170 ,3,1,0.,24.0,0.,24.0
1979-07-27 06:53:31.170 ,0,1,0.,24.0,0.,24.0
1979-07-27 06:53:55.170 ,0,0,0.,24.0,0.,24.0
1979-07-27 06:54:19.170 ,0,0,0.,24.0,0.,24.0
1979-07-27 06:54:43.170 ,5,1,0.,24.0,0.,24.0
1979-07-27 06:55:07.170 ,5,0,0.,24.0,0.,24.0
1979-07-27 06:55:31.170 ,4,1,0.,24.0,0.,24.0
1979-07-27 06:55:55.170 ,4,0,0.,24.0,0.,24.0
1979-07-27 06:56:19.170 ,3,1,0.,24.0,0.,24.0
1979-07-27 06:56:43.170 ,3,0,0.,24.0,0.,24.0
1979-07-27 06:57:07.170 ,2,1,0.,24.0,0.,24.0
1979-07-27 06:57:31.170 ,2,0,0.,24.0,0.,24.0
1979-07-27 06:57:55.170 ,1,1,0.,24.0,0.,24.0
1979-07-27 06:58:19.170 ,1,0,0.,24.0,0.,24.0
1979-07-27 06:58:43.170 ,0,1,0.,24.0,0.,24.0
1979-07-27 06:59:07.170 ,0,0,0.,24.0,0.,24.0
1979-07-27 06:59:31.170 ,0,1,0.,24.0,0.,24.0
1979-07-27 06:59:55.170 ,0,0,0.,24.0,0.,24.0
1979-07-27 07:00:19.170 ,1,1,0.,24.0,0.,24.0
1979-07-27 07:00:43.170 ,1,0,0.,24.0,0.,24.0
1979-07-27 07:01:07.170 ,2,1,0.,24.0,0.,24.0
1979-07-27 07:01:31.170 ,2,0,0.,24.0,0.,24.0
1979-07-27 07:01:55.170 ,3,1,0.,24.0,0.,24.0
1979-07-27 07:02:19.170 ,3,0,0.,24.0,0.,24.0
1979-07-27 07:02:43.170 ,4,1,0.,24.0,0.,24.0
1979-07-27 07:03:07.170 ,4,0,0.,24.0,0.,24.0
1979-07-27 07:03:31.170 ,5,1,0.,24.0,0.,24.0
1979-07-27 07:03:55.170 ,5,0,0.,24.0,0.,24.0
1979-07-27 07:04:19.170 ,6,1,0.,24.0,0.,24.0
1979-07-27 07:04:43.170 ,6,0,0.,24.0,0.,24.0
1979-07-27 07:05:07.170 ,7,1,0.,24.0,0.,24.0
1979-07-27 07:05:31.170 ,7,0,0.,24.0,0.,24.0
1979-07-27 07:05:55.170 ,7,1,0.,24.0,0.,24.0
1979-07-27 07:06:19.170 ,7,0,0.,24.0,0.,24.0
1979-07-27 07:06:43.170 ,6,1,0.,24.0,0.,24.0
1979-07-27 07:07:07.170 ,6,0,0.,24.0,0.,24.0
1979-07-27 07:07:31.170 ,5,1,0.,24.0,0.,24.0
1979-07-27 07:07:55.170 ,5,0,0.,24.0,0.,24.0
1979-07-27 07:08:19.170 ,4,1,0.,24.0,0.,24.0
1979-07-27 07:08:43.170 ,4,0,0.,24.0,0.,24.0
1979-07-27 07:09:07.170 ,3,1,0.,24.0,0.,24.0
1979-07-27 07:09:31.170 ,3,0,0.,24.0,0.,24.0
1979-07-27 07:09:55.170 ,2,1,0.,24.0,0.,24.0
1979-07-27 07:10:19.170 ,2,0,0.,24.0,0.,24.0
1979-07-27 07:10:43.170 ,1,1,0.,24.0,0.,24.0
1979-07-27 07:11:07.170 ,1,0,0.,24.0,0.,24.0
1979-07-27 07:11:31.170 ,0,1,0.,24.0,0.,24.0
1979-07-27 07:11:55.170 ,0,0,0.,24.0,0.,24.0
1979-07-27 07:12:19.170 ,0,1,0.,24.0,0.,24.0
1979-07-27 07:12:43.170 ,0,0,0.,24.0,0.,24.0
1979-07-27 07:13:07.170 ,1,1,0.,24.0,0.,24.0
1979-07-27 07:13:31.170 ,1,0,0.,24.0,0.,24.0
1979-07-27 07:13:55.170 ,2,1,0.,24.0,0.,24.0
1979-07-27 07:14:19.170 ,2,0,0.,24.0,0.,24.0
1979-07-27 07:14:43.170 ,3,1,0.,24.0,0.,24.0
1979-07-27 07:15:07.170 ,3,0,0.,24.0,0.,24.0
1979-07-27 07:15:31.170 ,4,1,0.,24.0,0.,24.0
1979-07-27 07:15:55.170 ,4,0,0.,24.0,0.,24.0
1979-07-27 07:16:19.170 ,5,1,0.,24.0,0.,24.0
1979-07-27 07:16:43.170 ,5,0,0.,24.0,0.,24.0
1979-07-27 07:17:07.170 ,6,1,0.,24.0,0.,24.0
1979-07-27 07:17:31.170 ,6,0,0.,24.0,0.,24.0
1979-07-27 07:17:55.170 ,7,1,0.,24.0,0.,24.0
1979-07-27 07:18:19.170 ,7,0,0.,24.0,0.,24.0
1979-07-27 07:18:43.170 ,7,1,0.,24.0,0.,24.0
1979-07-27 07:19:07.170 ,7,0,0.,24.0,0.,24.0
1979-07-27 07:19:31.170 ,6,1,0.,24.0,0.,24.0
1979-07-27 07:19:55.170 ,6,0,0.,24.0,0.,24.0
1979-07-27 07:20:19.170 ,5,1,0.,24.0,0.,24.0
1979-07-27 07:20:43.170 ,5,0,0.,24.0,0.,24.0
1979-07-27 07:21:07.170 ,4,1,0.,24.0,0.,24.0
1979-07-27 07:21:31.170 ,4,0,0.,24.0,0.,24.0
1979-07-27 07:21:55.170 ,3,1,0.,24.0,0.,24.0
1979-07-27 07:22:19.170 ,3,0,0.,24.0,0.,24.0
1979-07-27 07:22:43.170 ,2,1,0.,24.0,0.,24.0
1979-07-27 07:23:07.170 ,2,0,0.,24.0,0.,24.0
1979-07-27 07:23:31.170 ,1,1,0.,24.0,0.,24.0
1979-07-27 07:23:55.170 ,1,0,0.,24.0,0.,24.0
1979-07-27 07:24:19.170 ,0,1,0.,24.0,0.,24.0
1979-07-27 07:24:43.170 ,0,0,0.,24.0,0.,24.0
1979-07-27 07:25:07.170 ,0,1,0.,24.0,0.,24.0
1979-07-27 07:25:31.170 ,0,0,0.,24.0,0.,24.0
1979-07-27 07:25:55.170 ,1,1,0.,24.0,0.,24.0
1979-07-27 07:26:19.170 ,1,0,0.,24.0,0.,24.0
1979-07-27 07:26:43.170 ,2,1,0.,24.0,0.,24.0
1979-07-27 07:27:07.170 ,2,0,0.,24.0,0.,24.0
1979-07-27 07:27:31.170 ,3,1,0.,24.0,0.,24.0
1979-07-27 07:27:55.170 ,3,0,0.,24.0,0.,24.0
1979-07-27 07:28:19.170 ,4,1,0.,24.0,0.,24.0
1979-07-27 07:28:43.170 ,4,0,0.,24.0,0.,24.0
1979-07-27 07:29:07.170 ,5,1,0.,24.0,0.,24.0
1979-07-27 07:29:31.170 ,5,0,0.,24.0,0.,24.0
1979-07-27 07:29:55.170 ,6,1,0.,24.0,0.,24.0
1979-07-27 07:30:19.170 ,6,0,0.,24.0,0.,24.0
1979-07-27 07:30:43.170 ,7,0,0.,24.0,0.,24.0
1979-07-27 07:31:07.170 ,7,0,0.,24.0,0.,24.0
1979-07-27 07:31:31.170 ,3,1,0.,24.0,0.,24.0
1979-07-27 07:31:55.170 ,0,1,0.,24.0,0.,24.0
1979-07-27 07:32:19.170 ,4,1,0.,24.0,0.,24.0
1979-07-27 07:32:43.170 ,7,1,0.,24.0,0.,24.0
1979-07-27 07:33:07.170 ,3,1,0.,24.0,0.,24.0
1979-07-27 07:33:31.170 ,0,1,0.,24.0,0.,24.0
1979-07-27 07:33:55.170 ,4,1,0.,24.0,0.,24.0
1979-07-27 07:34:19.170 ,7,1,0.,24.0,0.,24.0
1979-07-27 07:34:43.170 ,3,1,0.,24.0,0.,24.0
1979-07-27 07:35:07.170 ,0,1,0.,24.0,0.,24.0
1979-07-27 07:35:31.170 ,4,1,0.,24.0,0.,24.0
1979-07-27 07:35:55.170 ,7,1,0.,24.0,0.,24.0
1979-07-27 07:36:19.170 ,3,1,0.,24.0,0.,24.0
1979-07-27 07:36:43.170 ,0,1,0.,24.0,0.,24.0
1979-07-27 07:37:07.170 ,4,1,0.,24.0,0.,24.0
1979-07-27 07:37:31.170 ,7,1,0.,24.0,0.,24.0
1979-07-27 07:37:55.170 ,3,1,0.,24.0,0.,24.0
1979-07-27 07:38:19.170 ,0,1,0.,24.0,0.,24.0
1979-07-27 07:38:43.170 ,4,1,0.,24.0,0.,24.0
1979-07-27 07:39:07.170 ,7,1,0.,24.0,0.,24.0
1979-07-27 07:39:31.170 ,3,1,0.,24.0,0.,24.0
1979-07-27 07:39:55.170 ,0,1,0.,24.0,0.,24.0
1979-07-27 07:40:19.170 ,4,1,0.,24.0,0.,24.0
1979-07-27 07:40:43.170 ,7,1,0.,24.0,0.,24.0
1979-07-27 07:41:07.170 ,3,1,0.,24.0,0.,24.0
1979-07-27 07:41:31.170 ,0,1,0.,24.0,0.,24.0
1979-07-27 07:41:55.170 ,0,0,0.,24.0,0.,24.0
1979-07-27 07:42:19.170 ,0,0,0.,24.0,0.,24.0
1979-07-27 07:42:43.170 ,5,1,0.,24.0,0.,24.0
1979-07-27 07:43:07.170 ,5,0,0.,24.0,0.,24.0
1979-07-27 07:43:31.170 ,4,1,0.,24.0,0.,24.0
1979-07-27 07:43:55.170 ,4,0,0.,24.0,0.,24.0
1979-07-27 07:44:19.170 ,3,1,0.,24.0,0.,24.0
1979-07-27 07:44:43.170 ,3,0,0.,24.0,0.,24.0
1979-07-27 07:45:07.170 ,2,1,0.,24.0,0.,24.0
1979-07-27 07:45:31.170 ,2,0,0.,24.0,0.,24.0
1979-07-27 07:45:55.170 ,1,1,0.,24.0,0.,24.0
1979-07-27 07:46:19.170 ,1,0,0.,24.0,0.,24.0
1979-07-27 07:46:43.170 ,0,1,0.,24.0,0.,24.0
1979-07-27 07:47:07.170 ,0,0,0.,24.0,0.,24.0
1979-07-27 07:47:31.170 ,0,1,0.,24.0,0.,24.0
1979-07-27 07:47:55.170 ,0,0,0.,24.0,0.,24.0
1979-07-27 07:48:19.170 ,1,1,0.,24.0,0.,24.0
1979-07-27 07:48:43.170 ,1,0,0.,24.0,0.,24.0
1979-07-27 07:49:07.170 ,2,1,0.,24.0,0.,24.0
1979-07-27 07:49:31.170 ,2,0,0.,24.0,0.,24.0
1979-07-27 07:49:55.170 ,3,1,0.,24.0,0.,24.0
1979-07-27 07:50:19.170 ,3,0,0.,24.0,0.,24.0
1979-07-27 07:50:43.170 ,4,1,0.,24.0,0.,24.0
1979-07-27 07:51:07.170 ,4,0,0.,24.0,0.,24.0
1979-07-27 07:51:31.170 ,5,1,0.,24.0,0.,24.0
1979-07-27 07:51:55.170 ,5,0,0.,24.0,0.,24.0
1979-07-27 07:52:19.170 ,6,1,0.,24.0,0.,24.0
1979-07-27 07:52:43.170 ,6,0,0.,24.0,0.,24.0
1979-07-27 07:53:07.170 ,7,1,0.,24.0,0.,24.0
1979-07-27 07:53:31.170 ,7,0,0.,24.0,0.,24.0
1979-07-27 07:53:55.170 ,7,1,0.,24.0,0.,24.0
1979-07-27 07:54:19.170 ,7,0,0.,24.0,0.,24.0
1979-07-27 07:54:43.170 ,6,1,0.,24.0,0.,24.0
1979-07-27 07:55:07.170 ,6,0,0.,24.0,0.,24.0
1979-07-27 07:55:31.170 ,5,1,0.,24.0,0.,24.0
1979-07-27 07:55:55.170 ,5,0,0.,24.0,0.,24.0
1979-07-27 07:56:19.170 ,4,1,0.,24.0,0.,24.0
1979-07-27 07:56:43.170 ,4,0,0.,24.0,0.,24.0
1979-07-27 07:57:07.170 ,3,1,0.,24.0,0.,24.0
1979-07-27 07:57:31.170 ,3,0,0.,24.0,0.,24.0
1979-07-27 07:57:55.170 ,2,1,0.,24.0,0.,24.0
1979-07-27 07:58:19.170 ,2,0,0.,24.0,0.,24.0
1979-07-27 07:58:43.170 ,1,1,0.,24.0,0.,24.0
1979-07-27 07:59:07.170 ,1,0,0.,24.0,0.,24.0
1979-07-27 07:59:31.170 ,0,1,0.,24.0,0.,24.0
1979-07-27 07:59:55.170 ,0,0,0.,24.0,0.,24.0
1979-07-27 08:00:19.170 ,0,1,0.,24.0,0.,24.0
1979-07-27 08:00:43.170 ,0,0,0.,24.0,0.,24.0
1979-07-27 08:01:07.170 ,1,1,0.,24.0,0.,24.0
1979-07-27 08:01:31.170 ,1,0,0.,24.0,0.,24.0
1979-07-27 08:01:55.170 ,2,1,0.,24.0,0.,24.0
1979-07-27 08:02:19.170 ,2,0,0.,24.0,0.,24.0
1979-07-27 08:02:43.170 ,3,1,0.,24.0,0.,24.0
1979-07-27 08:03:07.170 ,3,0,0.,24.0,0.,24.0
1979-07-27 08:03:31.170 ,4,1,0.,24.0,0.,24.0
1979-07-27 08:03:55.170 ,4,0,0.,24.0,0.,24.0
1979-07-27 08:04:19.170 ,5,1,0.,24.0,0.,24.0
1979-07-27 08:04:43.170 ,5,0,0.,24.0,0.,24.0
1979-07-27 08:05:07.170 ,6,1,0.,24.0,0.,24.0
1979-07-27 08:05:31.170 ,6,0,0.,24.0,0.,24.0
1979-07-27 08:05:55.170 ,7,1,0.,24.0,0.,24.0
1979-07-27 08:06:19.170 ,7,0,0.,24.0,0.,24.0
1979-07-27 08:06:43.170 ,7,1,0.,24.0,0.,24.0
1979-07-27 08:07:07.170 ,7,0,0.,24.0,0.,24.0
1979-07-27 08:07:31.170 ,6,1,0.,24.0,0.,24.0
1979-07-27 08:07:55.170 ,6,0,0.,24.0,0.,24.0
1979-07-27 08:08:19.170 ,5,1,0.,24.0,0.,24.0
1979-07-27 08:08:43.170 ,5,0,0.,24.0,0.,24.0
1979-07-27 08:09:07.170 ,4,1,0.,24.0,0.,24.0
1979-07-27 08:09:31.170 ,4,0,0.,24.0,0.,24.0
1979-07-27 08:09:55.170 ,3,1,0.,24.0,0.,24.0
1979-07-27 08:10:19.170 ,3,0,0.,24.0,0.,24.0
1979-07-27 08:10:43.170 ,2,1,0.,24.0,0.,24.0
1979-07-27 08:11:07.170 ,2,0,0.,24.0,0.,24.0
1979-07-27 08:11:31.170 ,1,1,0.,24.0,0.,24.0
1979-07-27 08:11:55.170 ,1,0,0.,24.0,0.,24.0
1979-07-27 08:12:19.170 ,0,1,0.,24.0,0.,24.0
1979-07-27 08:12:43.170 ,0,0,0.,24.0,0.,24.0
1979-07-27 08:13:07.170 ,0,1,0.,24.0,0.,24.0
1979-07-27 08:13:31.170 ,0,0,0.,24.0,0.,24.0
1979-07-27 08:13:55.170 ,1,1,0.,24.0,0.,24.0
1979-07-27 08:14:19.170 ,1,0,0.,24.0,0.,24.0
1979-07-27 08:14:43.170 ,2,1,0.,24.0,0.,24.0
1979-07-27 08:15:07.170 ,2,0,0.,24.0,0.,24.0
1979-07-27 08:15:31.170 ,3,1,0.,24.0,0.,24.0
1979-07-27 08:15:55.170 ,3,0,0.,24.0,0.,24.0
1979-07-27 08:16:19.170 ,4,1,0.,24.0,0.,24.0
1979-07-27 08:16:43.170 ,4,0,0.,24.0,0.,24.0
1979-07-27 08:17:07.170 ,5,1,0.,24.0,0.,24.0
1979-07-27 08:17:31.170 ,5,0,0.,24.0,0.,24.0
1979-07-27 08:17:55.170 ,6,1,0.,24.0,0.,24.0
1979-07-27 08:18:19.170 ,6,0,0.,24.0,0.,24.0
1979-07-27 08:18:43.170 ,7,0,0.,24.0,0.,24.0
1979-07-27 08:19:07.170 ,7,0,0.,24.0,0.,24.0
1979-07-27 08:19:31.170 ,3,1,0.,24.0,0.,24.0
1979-07-27 08:19:55.170 ,0,1,0.,24.0,0.,24.0
1979-07-27 08:20:19.170 ,4,1,0.,24.0,0.,24.0
1979-07-27 08:20:43.170 ,7,1,0.,24.0,0.,24.0
1979-07-27 08:21:07.170 ,3,1,0.,24.0,0.,24.0
1979-07-27 08:21:31.170 ,0,1,0.,24.0,0.,24.0
1979-07-27 08:21:55.170 ,4,1,0.,24.0,0.,24.0
1979-07-27 08:22:19.170 ,7,1,0.,24.0,0.,24.0
1979-07-27 08:22:43.170 ,3,1,0.,24.0,0.,24.0
1979-07-27 08:23:07.170 ,0,1,0.,24.0,0.,24.0
1979-07-27 08:23:31.170 ,4,1,0.,24.0,0.,24.0
1979-07-27 08:23:55.170 ,7,1,0.,24.0,0.,24.0
1979-07-27 08:24:19.170 ,3,1,0.,24.0,0.,24.0
1979-07-27 08:24:43.170 ,0,1,0.,24.0,0.,24.0
1979-07-27 08:25:07.170 ,4,1,0.,24.0,0.,24.0
1979-07-27 08:25:31.170 ,7,1,0.,24.0,0.,24.0
1979-07-27 08:25:55.170 ,3,1,0.,24.0,0.,24.0
1979-07-27 08:26:19.170 ,0,1,0.,24.0,0.,24.0
1979-07-27 08:26:43.170 ,4,1,0.,24.0,0.,24.0
1979-07-27 08:27:07.170 ,7,1,0.,24.0,0.,24.0
1979-07-27 08:27:31.170 ,3,1,0.,24.0,0.,24.0
1979-07-27 08:27:55.170 ,0,1,0.,24.0,0.,24.0
1979-07-27 08:28:19.170 ,4,1,0.,24.0,0.,24.0
1979-07-27 08:28:43.170 ,7,1,0.,24.0,0.,24.0
1979-07-27 08:29:07.170 ,3,1,0.,24.0,0.,24.0
1979-07-27 08:29:31.170 ,0,1,0.,24.0,0.,24.0
1979-07-27 08:29:55.170 ,0,0,0.,24.0,0.,24.0
1979-07-27 08:30:19.170 ,0,0,0.,24.0,0.,24.0
1979-07-27 08:30:43.170 ,5,1,0.,24.0,0.,24.0
1979-07-27 08:31:07.170 ,5,0,0.,24.0,0.,24.0
1979-07-27 08:31:31.170 ,4,1,0.,24.0,0.,24.0
1979-07-27 08:31:55.170 ,4,0,0.,24.0,0.,24.0
1979-07-27 08:32:19.170 ,3,1,0.,24.0,0.,24.0
1979-07-27 08:32:43.170 ,3,0,0.,24.0,0.,24.0
1979-07-27 08:33:07.170 ,2,1,0.,24.0,0.,24.0
1979-07-27 08:33:31.170 ,2,0,0.,24.0,0.,24.0
1979-07-27 08:33:55.170 ,1,1,0.,24.0,0.,24.0
1979-07-27 08:34:19.170 ,1,0,0.,24.0,0.,24.0
1979-07-27 08:34:43.170 ,0,1,0.,24.0,0.,24.0
1979-07-27 08:35:07.170 ,0,0,0.,24.0,0.,24.0
1979-07-27 08:35:31.170 ,0,1,0.,24.0,0.,24.0
1979-07-27 08:35:55.170 ,0,0,0.,24.0,0.,24.0
1979-07-27 08:36:19.170 ,1,1,0.,24.0,0.,24.0
1979-07-27 08:36:43.170 ,1,0,0.,24.0,0.,24.0
1979-07-27 08:37:07.170 ,2,1,0.,24.0,0.,24.0
1979-07-27 08:37:31.170 ,2,0,0.,24.0,0.,24.0
1979-07-27 08:37:55.170 ,3,1,0.,24.0,0.,24.0
1979-07-27 08:38:19.170 ,3,0,0.,24.0,0.,24.0
1979-07-27 08:38:43.170 ,4,1,0.,24.0,0.,24.0
1979-07-27 08:39:07.170 ,4,0,0.,24.0,0.,24.0
1979-07-27 08:39:31.170 ,5,1,0.,24.0,0.,24.0
1979-07-27 08:39:55.170 ,5,0,0.,24.0,0.,24.0
1979-07-27 08:40:19.170 ,6,1,0.,24.0,0.,24.0
1979-07-27 08:40:43.170 ,6,0,0.,24.0,0.,24.0
1979-07-27 08:41:07.170 ,7,1,0.,24.0,0.,24.0
1979-07-27 08:41:31.170 ,7,0,0.,24.0,0.,24.0
1979-07-27 08:41:55.170 ,7,1,0.,24.0,0.,24.0
1979-07-27 08:42:19.170 ,7,0,0.,24.0,0.,24.0
1979-07-27 08:42:43.170 ,6,1,0.,24.0,0.,24.0
1979-07-27 08:43:07.170 ,6,0,0.,24.0,0.,24.0
1979-07-27 08:43:31.170 ,5,1,0.,24.0,0.,24.0
1979-07-27 08:43:55.170 ,5,0,0.,24.0,0.,24.0
1979-07-27 08:44:19.170 ,4,1,0.,24.0,0.,24.0
1979-07-27 08:44:43.170 ,4,0,0.,24.0,0.,24.0
1979-07-27 08:45:07.170 ,3,1,0.,24.0,0.,24.0
1979-07-27 08:45:31.170 ,3,0,0.,24.0,0.,24.0
1979-07-27 08:45:55.170 ,2,1,0.,24.0,0.,24.0
1979-07-27 08:46:19.170 ,2,0,0.,24.0,0.,24.0
1979-07-27 08:46:43.170 ,1,1,0.,24.0,0.,24.0
1979-07-27 08:47:07.170 ,1,0,0.,24.0,0.,24.0
1979-07-27 08:47:31.170 ,0,1,0.,24.0,0.,24.0
1979-07-27 08:47:55.170 ,0,0,0.,24.0,0.,24.0
1979-07-27 08:48:19.170 ,0,1,0.,24.0,0.,24.0
1979-07-27 08:48:43.170 ,0,0,0.,24.0,0.,24.0
1979-07-27 08:49:07.170 ,1,1,0.,24.0,0.,24.0
1979-07-27 08:49:31.170 ,1,0,0.,24.0,0.,24.0
1979-07-27 08:49:55.170 ,2,1,0.,24.0,0.,24.0
1979-07-27 08:50:19.170 ,2,0,0.,24.0,0.,24.0
1979-07-27 08:50:43.170 ,3,1,0.,24.0,0.,24.0
1979-07-27 08:51:07.170 ,3,0,0.,24.0,0.,24.0
1979-07-27 08:51:31.170 ,4,1,0.,24.0,0.,24.0
1979-07-27 08:51:55.170 ,4,0,0.,24.0,0.,24.0
1979-07-27 08:52:19.170 ,5,1,0.,24.0,0.,24.0
1979-07-27 08:52:43.170 ,5,0,0.,24.0,0.,24.0
1979-07-27 08:53:07.170 ,6,1,0.,24.0,0.,24.0
1979-07-27 08:53:31.170 ,6,0,0.,24.0,0.,24.0
1979-07-27 08:53:55.170 ,7,1,0.,24.0,0.,24.0
1979-07-27 08:54:19.170 ,7,0,0.,24.0,0.,24.0
1979-07-27 08:54:43.170 ,7,1,0.,24.0,0.,24.0
1979-07-27 08:55:07.170 ,7,0,0.,24.0,0.,24.0
1979-07-27 08:55:31.170 ,6,1,0.,24.0,0.,24.0
1979-07-27 08:55:55.170 ,6,0,0.,24.0,0.,24.0
1979-07-27 08:56:19.170 ,5,1,0.,24.0,0.,24.0
1979-07-27 08:56:43.170 ,5,0,0.,24.0,0.,24.0
1979-07-27 08:57:07.170 ,4,1,0.,24.0,0.,24.0
1979-07-27 08:57:31.170 ,4,0,0.,24.0,0.,24.0
1979-07-27 08:57:55.170 ,3,1,0.,24.0,0.,24.0
1979-07-27 08:58:19.170 ,3,0,0.,24.0,0.,24.0
1979-07-27 08:58:43.170 ,2,1,0.,24.0,0.,24.0
1979-07-27 08:59:07.170 ,2,0,0.,24.0,0.,24.0
1979-07-27 08:59:31.170 ,1,1,0.,24.0,0.,24.0
1979-07-27 08:59:55.170 ,1,0,0.,24.0,0.,24.0
1979-07-27 09:00:19.170 ,0,1,0.,24.0,0.,24.0
